Starlink 31369

operational
NORAD ID: 58975 Int'l Des: 2024-031 Owner: SPXS Country: US Constellation: starlink
LEOCIRCULAR

关于 Starlink 31369

正在加载描述...

实时位置

正在加载3D地球...

即将过境

高度历史

Altitude vs Time

uPlot chart will show altitude changes over time

两行轨道根数

1 58975U 24031L 25351.20307945 -.00002444 00000-0 -70445-4 0 9990
2 58975 53.1623 319.8698 0001244 80.9349 279.1793 15.30181088103887
Epoch: Dec 17, 2025 • Age: 25 hours

当前状态

高度 481.0 km
速度 7.63 km/s
星下点 53.26°N, 140.91°W
发射日期 Feb 15, 2024
运行时间 1.8 years
类型 internet

技术详情

分类 Payload
质量 730.00 kg
干质量 700.00 kg
总质量 730.00 kg
长度 0.30 m
直径 4.10 m
跨度 29.00 m
形状 Box + pan
制造商 SPXS
平台类型 Starlink V2M
阶段状态 In Orbit
所有者/国家 SPXS/US

大型星座

Loading constellations...